Location: Unspecified
(0.0000°N, 0.0000°E)
Time: 21:08:59
(UTC+00:00)

Hubble Space Telescope - Visible Passes

Search period start: 29 May 2016 00:00
Search period end: 08 June 2016 00:00
Orbit: 539 x 543 km, 28.5° (Epoch: 28 May)

Date Brightness Start Highest point End Pass type
(mag) Time Alt. Az. Time Alt. Az. Time Alt. Az.
29 May 3.1 18:53:53 10° N 18:55:47 13° NNE 18:57:41 10° NE visible
29 May 3.9 20:32:58 10° NW 20:33:27 13° NW 20:33:27 13° NW visible
30 May 2.8 18:43:23 10° NNW 18:46:12 18° NNE 18:49:01 10° ENE visible
30 May 3.5 20:23:18 10° WNW 20:24:25 18° WNW 20:24:25 18° WNW visible
31 May 2.4 18:33:12 10° NNW 18:36:35 24° NNE 18:39:59 10° E visible
31 May 3.1 20:13:46 10° WNW 20:15:25 22° W 20:15:25 22° W visible
01 Jun 1.9 18:23:11 10° NW 18:26:57 34° NNE 18:30:44 10° E visible
01 Jun 2.8 20:04:21 10° W 20:06:26 24° WSW 20:06:26 24° WSW visible
02 Jun 2.7 19:55:05 10° W 19:57:28 22° SW 19:57:28 22° SW visible
03 Jun 3.3 04:30:08 10° SSE 04:31:09 11° SSE 04:32:11 10° SE visible
03 Jun 2.9 19:46:01 10° WSW 19:48:31 18° SW 19:48:31 18° SW visible
04 Jun 3.0 04:21:06 15° SSE 04:21:35 15° SSE 04:23:59 10° ESE visible
04 Jun 3.1 19:37:17 10° WSW 19:39:19 13° SSW 19:39:33 13° SSW visible
05 Jun 2.7 04:12:09 20° SSE 04:12:09 20° SSE 04:15:06 10° ESE visible
06 Jun 2.5 04:03:11 26° SE 04:03:11 26° SE 04:05:57 10° E visible
07 Jun 2.5 03:54:12 29° ESE 03:54:12 29° ESE 03:56:37 10° E visible
07 Jun 2.1 05:30:15 10° W 05:33:54 30° NNW 05:37:33 10° NNE visible
